Deep River, CT

9:56 AM EST on February 19, 2017 (GMT -0500)
Chester

Weather History for KSNC - November, 2013

Change the Weather History Date:

Tuesday, November 19, 2013

  Actual Average (KHVN) Record (KHVN)
Temperature  
Mean Temperature 40 °F -  
Max Temperature 48 °F 49 °F 66 °F (1987)
Min Temperature 32 °F 35 °F 21 °F (2005)
Degree Days  
Heating Degree Days 25    
Moisture  
Dew Point 22 °F    
Average Humidity 49    
Maximum Humidity 60    
Minimum Humidity 37    
Precipitation  
Precipitation 0.00 in - - ()
Sea Level Pressure  
Sea Level Pressure 30.00 in    
Wind  
Wind Speed 12 mph (NW)    
Max Wind Speed 24 mph    
Max Gust Speed 34 mph    
Visibility 10 miles    
Events      
Averages and records for this station are not official NWS values.
T = Trace of Precipitation, MM = Missing Value Source: NWS Daily Summary

Daily Weather History Graph

Daily Weather History Graph

Search for Another Location

Airport or City:

Trip Planner

Search our weather history database for the weather conditions in past years. The results will help you decide how hot, cold, wet, or windy it might be!

Date:

Astronomy

Nov. 19, 2013 Rise Set
Actual Time 6:43 AM EST 4:27 PM EST
Civil Twilight 6:13 AM EST 4:57 PM EST
Nautical Twilight 5:39 AM EST 5:30 PM EST
Astronomical Twilight 5:06 AM EST 6:03 PM EST
Moon 6:15 PM EST 8:20 AM EST
Length of Visible Light 10h 43m
Length of Day
9h 43m
Waning Gibbous, 96% of the Moon is Illuminated
Nov 19
Waning Gibbous
Nov 25
Last Quarter
Dec 2
New
Dec 9
First Quarter
Dec 17
Full

Hourly Weather History & Observations

Time (EST) Temp. Windchill Dew Point Humidity Pressure Visibility Wind Dir Wind Speed Gust Speed Precip Events Conditions
12:15 AM 48.2 °F - 24.8 °F 40% 29.72 in 10.0 mi WNW 6.9 mph 19.6 mph N/A   Clear
12:35 AM 48.2 °F - 24.8 °F 40% 29.72 in 10.0 mi WNW 10.4 mph 19.6 mph N/A   Clear
12:55 AM 48.2 °F - 24.8 °F 40% 29.73 in 10.0 mi WNW 10.4 mph 17.3 mph N/A   Clear
1:15 AM 48.2 °F - 26.6 °F 43% 29.73 in 10.0 mi WNW 8.1 mph - N/A   Clear
1:35 AM 46.4 °F 42.4 °F 26.6 °F 46% 29.74 in 10.0 mi NW 8.1 mph 17.3 mph N/A   Clear
1:55 AM 46.4 °F 41.1 °F 26.6 °F 46% 29.75 in 10.0 mi WNW 11.5 mph 18.4 mph N/A   Clear
2:15 AM 46.4 °F 40.7 °F 26.6 °F 46% 29.75 in 10.0 mi NW 12.7 mph 20.7 mph N/A   Clear
2:35 AM 46.4 °F 41.5 °F 28.4 °F 50% 29.76 in 10.0 mi NW 10.4 mph 17.3 mph N/A   Clear
2:55 AM 44.6 °F 39.7 °F 28.4 °F 53% 29.77 in 10.0 mi WNW 9.2 mph 20.7 mph N/A   Partly Cloudy
3:15 AM 44.6 °F 37.8 °F 26.6 °F 49% 29.78 in 10.0 mi NW 15.0 mph 24.2 mph N/A   Clear
3:35 AM 44.6 °F 40.2 °F 26.6 °F 49% 29.79 in 10.0 mi NW 8.1 mph - N/A   Scattered Clouds
3:55 AM 44.6 °F 39.7 °F 24.8 °F 46% 29.80 in 10.0 mi NW 9.2 mph - N/A   Mostly Cloudy
4:15 AM 42.8 °F 35.1 °F 23.0 °F 46% 29.81 in 10.0 mi WNW 16.1 mph 21.9 mph N/A   Partly Cloudy
4:35 AM 42.8 °F 38.0 °F 23.0 °F 46% 29.82 in 10.0 mi NNW 8.1 mph - N/A   Clear
4:55 AM 41.0 °F 35.2 °F 23.0 °F 49% 29.82 in 10.0 mi WNW 9.2 mph - N/A   Clear
5:15 AM 41.0 °F 34.7 °F 23.0 °F 49% 29.84 in 10.0 mi WNW 10.4 mph 16.1 mph N/A   Clear
5:35 AM 41.0 °F 34.3 °F 23.0 °F 49% 29.84 in 10.0 mi WNW 11.5 mph 21.9 mph N/A   Clear
5:55 AM 41.0 °F 34.7 °F 21.2 °F 45% 29.86 in 10.0 mi WNW 10.4 mph 23.0 mph N/A   Clear
6:15 AM 39.2 °F 35.0 °F 21.2 °F 49% 29.87 in 10.0 mi NW 5.8 mph - N/A   Clear
6:35 AM 39.2 °F 33.6 °F 21.2 °F 49% 29.88 in 10.0 mi WNW 8.1 mph - N/A   Scattered Clouds
6:55 AM 39.2 °F 34.2 °F 21.2 °F 49% 29.89 in 10.0 mi WNW 6.9 mph - N/A   Mostly Cloudy
7:15 AM 39.2 °F 32.5 °F 21.2 °F 49% 29.90 in 10.0 mi NW 10.4 mph - N/A   Scattered Clouds
7:35 AM 39.2 °F 31.6 °F 23.0 °F 52% 29.91 in 10.0 mi NW 12.7 mph 16.1 mph N/A   Mostly Cloudy
7:55 AM 41.0 °F 34.7 °F 23.0 °F 49% 29.91 in 10.0 mi NW 10.4 mph - N/A   Mostly Cloudy
8:15 AM 42.8 °F 35.8 °F 24.8 °F 49% 29.92 in 10.0 mi NW 13.8 mph 25.3 mph N/A   Partly Cloudy
8:35 AM 42.8 °F 36.2 °F 26.6 °F 53% 29.93 in 10.0 mi NW 12.7 mph 25.3 mph N/A   Clear
8:55 AM 42.8 °F 35.4 °F 26.6 °F 53% 29.93 in 10.0 mi NNW 15.0 mph 27.6 mph N/A   Clear
9:15 AM 42.8 °F 34.3 °F 24.8 °F 49% 29.95 in 10.0 mi NNW 19.6 mph 29.9 mph N/A   Clear
9:35 AM 42.8 °F 34.8 °F 24.8 °F 49% 29.95 in 10.0 mi NW 17.3 mph 28.8 mph N/A   Clear
9:55 AM 42.8 °F 34.5 °F 23.0 °F 46% 29.96 in 10.0 mi North 18.4 mph 25.3 mph N/A   Clear
10:15 AM 42.8 °F 35.1 °F 23.0 °F 46% 29.96 in 10.0 mi North 16.1 mph 26.5 mph N/A   Clear
10:35 AM 42.8 °F 35.4 °F 23.0 °F 46% 29.97 in 10.0 mi NW 15.0 mph 27.6 mph N/A   Clear
10:55 AM 42.8 °F 34.3 °F 23.0 °F 46% 29.97 in 10.0 mi NNW 19.6 mph 31.1 mph N/A   Clear
11:15 AM 42.8 °F 34.8 °F 23.0 °F 46% 29.98 in 10.0 mi NNW 17.3 mph 28.8 mph N/A   Clear
11:35 AM 42.8 °F 33.5 °F 23.0 °F 46% 29.98 in 10.0 mi NNW 23.0 mph 31.1 mph N/A   Clear
11:55 AM 42.8 °F 35.8 °F 23.0 °F 46% 29.98 in 10.0 mi NNW 13.8 mph 29.9 mph N/A   Clear
12:15 PM 44.6 °F 37.4 °F 21.2 °F 39% 29.99 in 10.0 mi NNW 16.1 mph 24.2 mph N/A   Clear
12:35 PM 44.6 °F 36.6 °F 21.2 °F 39% 29.99 in 10.0 mi NNW 19.6 mph 26.5 mph N/A   Clear
12:55 PM 44.6 °F 36.9 °F 21.2 °F 39% 30.00 in 10.0 mi NNW 18.4 mph 26.5 mph N/A   Clear
1:15 PM 44.6 °F 37.8 °F 21.2 °F 39% 30.01 in 10.0 mi NNW 15.0 mph 25.3 mph N/A   Clear
1:35 PM 44.6 °F 35.7 °F 19.4 °F 37% 30.01 in 10.0 mi NNW 24.2 mph 34.5 mph N/A   Clear
1:55 PM 44.6 °F 37.8 °F 19.4 °F 37% 30.02 in 10.0 mi NW 15.0 mph 25.3 mph N/A   Clear
2:15 PM 44.6 °F 37.2 °F 19.4 °F 37% 30.02 in 10.0 mi NNW 17.3 mph 26.5 mph N/A   Clear
2:35 PM 42.8 °F 34.5 °F 19.4 °F 39% 30.04 in 10.0 mi NNW 18.4 mph 28.8 mph N/A   Clear
2:55 PM 42.8 °F 35.1 °F 21.2 °F 42% 30.04 in 10.0 mi NNW 16.1 mph 31.1 mph N/A   Clear
3:15 PM 42.8 °F 36.6 °F 19.4 °F 39% 30.06 in 10.0 mi NNW 11.5 mph 28.8 mph N/A   Clear
3:35 PM 42.8 °F 35.8 °F 19.4 °F 39% 30.07 in 10.0 mi NW 13.8 mph 24.2 mph N/A   Clear
3:55 PM 41.0 °F 33.5 °F 21.2 °F 45% 30.08 in 10.0 mi NW 13.8 mph 23.0 mph N/A   Clear
4:15 PM 39.2 °F 33.0 °F 21.2 °F 49% 30.09 in 10.0 mi NW 9.2 mph 21.9 mph N/A   Clear
4:35 PM 39.2 °F 30.8 °F 21.2 °F 49% 30.11 in 10.0 mi NNW 15.0 mph 24.2 mph N/A   Clear
4:55 PM 39.2 °F 30.8 °F 21.2 °F 49% 30.11 in 10.0 mi NW 15.0 mph 21.9 mph N/A   Clear
5:15 PM 39.2 °F 31.2 °F 21.2 °F 49% 30.12 in 10.0 mi NW 13.8 mph 21.9 mph N/A   Clear
5:35 PM 37.4 °F 27.2 °F 21.2 °F 52% 30.13 in 10.0 mi NW 19.6 mph 29.9 mph N/A   Clear
5:55 PM 37.4 °F 27.2 °F 21.2 °F 52% 30.15 in 10.0 mi NNW 19.6 mph 31.1 mph N/A   Clear
6:15 PM 37.4 °F 28.5 °F 21.2 °F 52% 30.16 in 10.0 mi NNW 15.0 mph 28.8 mph N/A   Clear
6:35 PM 37.4 °F 28.5 °F 21.2 °F 52% 30.17 in 10.0 mi NNW 15.0 mph 25.3 mph N/A   Clear
6:55 PM 35.6 °F 26.2 °F 21.2 °F 56% 30.18 in 10.0 mi NNW 15.0 mph 21.9 mph N/A   Clear
7:15 PM 35.6 °F 25.9 °F 21.2 °F 56% 30.18 in 10.0 mi NNW 16.1 mph 25.3 mph N/A   Clear
7:35 PM 35.6 °F 25.9 °F 21.2 °F 56% 30.19 in 10.0 mi NNW 16.1 mph 25.3 mph N/A   Clear
7:55 PM 35.6 °F 25.5 °F 21.2 °F 56% 30.20 in 10.0 mi NNW 17.3 mph 25.3 mph N/A   Clear
8:15 PM 35.6 °F 25.9 °F 21.2 °F 56% 30.21 in 10.0 mi North 16.1 mph 25.3 mph N/A   Clear
8:35 PM 33.8 °F 23.5 °F 21.2 °F 60% 30.22 in 10.0 mi NNW 16.1 mph 21.9 mph N/A   Clear
8:55 PM 33.8 °F 24.3 °F 21.2 °F 60% 30.23 in 10.0 mi North 13.8 mph 20.7 mph N/A   Clear
9:15 PM 33.8 °F 23.5 °F 21.2 °F 60% 30.22 in 10.0 mi North 16.1 mph 24.2 mph N/A   Clear
9:35 PM 33.8 °F 22.8 °F 21.2 °F 60% 30.23 in 10.0 mi NNW 18.4 mph 25.3 mph N/A   Clear
9:55 PM 33.8 °F 23.5 °F 19.4 °F 56% 30.24 in 10.0 mi NNW 16.1 mph 23.0 mph N/A   Clear
10:15 PM 33.8 °F 23.2 °F 19.4 °F 56% 30.25 in 10.0 mi NNW 17.3 mph 24.2 mph N/A   Clear
10:35 PM 33.8 °F 23.5 °F 19.4 °F 56% 30.25 in 10.0 mi North 16.1 mph 24.2 mph N/A   Clear
10:55 PM 33.8 °F 23.9 °F 19.4 °F 56% 30.27 in 10.0 mi NNW 15.0 mph 24.2 mph N/A   Clear
11:15 PM 33.8 °F 23.2 °F 19.4 °F 56% 30.28 in 10.0 mi NNW 17.3 mph 23.0 mph N/A   Clear
11:35 PM 32.0 °F 20.8 °F 19.4 °F 60% 30.28 in 10.0 mi NNW 17.3 mph 24.2 mph N/A   Clear
11:55 PM 32.0 °F 20.8 °F 19.4 °F 60% 30.29 in 10.0 mi NNW 17.3 mph 26.5 mph N/A   Clear